[[{"header":{"parameterUnit":"m.s-1","parameterCategory":1,"la1":30.2991,"la2":30.254,"lo1":-89.0895,"lo2":-89.0444,"dy":0.0017,"dx":0.0017,"nx":28,"ny":28,"refTime":"2025-08-23T09:00:00:Z","depth":0,"parameterNumber":2,"parameterNumberName":"U-component_of_WINDS"},"data":[0,0,0,0,0,0,0,0,0,0,0,0,0,0,0,0,0,0,0,0,0,0,0,0,0,0,0,0,0,0,0,0,0,0,0,0,0,0,0,0,0,0,0,0,0,0,0,0,0,0,0,0,0,0,0,0,0,0,2.1324,2.1326,0,2.1531,2.1534,2.1536,2.1565,2.1563,2.1561,2.1559,2.1778,2.1785,2.1793,0,0,0,0,0,0,0,0,0,0,0,0,0,2.096,2.0966,2.1324,2.1326,2.1329,2.1531,2.1534,2.1537,2.1565,2.1563,2.1561,2.1558,2.1775,2.1784,2.1793,0,0,0,0,0,0,0,0,0,0,0,0,0,2.1138,2.0968,2.1323,2.1367,2.1373,2.1531,2.1534,2.1538,2.1566,2.1563,2.156,2.1557,2.1772,2.1783,2.1795,2.1924,0,0,2.183,2.1835,0,0,0,0,0,0,0,0,2.1128,2.1151,2.1358,2.1365,2.1372,2.1519,2.1486,2.1667,2.1567,2.1493,2.1559,2.1556,2.1695,2.1712,2.1758,2.1934,2.1944,2.1831,2.1838,2.1843,2.1846,0,0,0,0,0,0,0,2.1115,2.1142,2.1406,2.1361,2.137,2.1379,2.1401,2.152,2.1608,2.1499,2.1502,2.1526,2.1698,2.1747,2.1763,2.1947,2.183,2.1841,2.1848,2.1852,2.2244,2.2248,0,0,0,0,0,0,2.1094,2.1132,2.14,2.1412,2.124,2.1388,2.1413,2.1475,2.1607,2.1624,2.1528,2.1526,2.1728,2.175,2.1771,2.1934,2.1842,2.1853,2.186,2.2241,2.2245,2.2249,0,0,0,0,0,0,2.1086,2.1117,2.1391,2.1273,2.1308,2.1398,2.1467,2.1481,2.1529,2.1628,2.1645,2.1561,2.1727,2.1755,2.1886,2.1942,2.1858,2.1869,2.2237,2.2242,2.2247,2.2258,0,0,0,0,0,0,2.1075,2.1114,2.1162,2.1274,2.1315,2.1501,2.147,2.1487,2.1548,2.1548,2.1664,2.168,2.1727,2.1869,2.1898,2.1956,2.1878,2.2232,2.2239,2.2245,2.2253,2.2263,2.2272,0,0,0,0,0,2.1062,2.1158,2.1165,2.1197,2.1376,2.1504,2.1527,2.1577,2.1553,2.1603,2.1667,2.1677,2.193,2.1882,2.1915,2.1977,2.2229,2.2237,2.2245,2.2249,2.2261,2.2272,0,0,0,0,0,0,2.1052,2.1173,2.1182,2.1316,2.1399,2.1508,2.1573,2.1588,2.1681,2.1677,2.1737,2.1763,2.1892,2.1948,2.1892,2.2111,2.2078,2.2093,2.207,2.2083,2.2092,2.2077,2.1887,0,0,0,0,0,2.1065,2.1157,2.1258,2.1367,2.1408,2.1483,2.1541,2.1572,2.1661,2.1697,2.1771,2.1859,2.1959,2.2024,2.2121,2.2261,2.2289,2.2321,2.233,2.2337,2.235,2.2432,2.2448,2.2275,2.2275,2.2275,0,0,2.1094,2.1171,2.1226,2.1367,2.1435,2.1531,2.1513,2.1614,2.1687,2.1713,2.1842,2.1899,2.2002,2.2139,2.2204,2.219,2.2404,2.2347,2.2352,2.2361,2.2442,2.2458,2.2473,2.228,2.2279,2.2279,0,0,2.1196,2.1262,2.1361,2.143,2.1533,2.1583,2.1606,2.1714,2.1753,2.1882,2.1905,2.1994,2.2163,2.2237,2.2296,2.2428,2.2442,2.2458,2.2507,2.2587,2.2601,2.2613,2.2663,2.268,2.2471,2.2471,2.2471,0,2.1219,2.1362,2.1411,2.1512,2.1575,2.1602,2.1705,2.177,2.19,2.1944,2.1926,2.2142,2.2213,2.237,2.2402,2.2448,2.248,2.2446,2.2594,2.2607,2.262,2.2668,2.2687,2.2472,2.2472,2.2472,2.2472,0,2.1387,2.1486,2.1554,2.1678,2.1749,2.185,2.1917,2.1984,2.2009,2.2062,2.2196,2.2282,2.2399,2.2438,2.2464,2.26,2.2588,2.2581,2.2549,2.2637,2.2684,2.2703,2.2474,2.2474,2.2473,2.2473,0,0,2.1488,2.1639,2.1663,2.1721,2.1837,2.1917,2.2021,2.2133,2.219,2.228,2.2371,2.2515,2.2511,2.2578,2.2613,2.2683,2.2786,2.2668,2.2672,2.269,2.2945,2.2951,2.2971,2.2795,2.2799,2.2802,2.2937,0,2.1606,2.179,2.1838,2.1996,2.209,2.2118,2.221,2.2293,2.2345,2.2435,2.2494,2.2597,2.2581,2.2622,2.2692,2.2758,2.2839,2.2749,2.2884,2.2888,2.2859,2.2995,2.3002,2.3126,2.2956,2.2959,2.2961,0,2.1767,2.1859,2.2026,2.2132,2.2174,2.2255,2.2363,2.2448,2.2544,2.2578,2.2654,2.2683,2.2796,2.2757,2.2916,2.2855,2.2913,2.2954,2.296,2.2977,2.2931,2.3018,2.3166,2.3185,2.299,2.2987,2.2985,0,2.1828,2.1993,2.2115,2.2163,2.229,2.2347,2.2403,2.2496,2.2561,2.2657,2.2701,2.2809,2.2869,2.2954,2.3013,2.2978,2.3169,2.3133,2.3203,2.3202,2.3244,2.3241,2.3405,2.3277,2.3276,2.3276,2.3276,0,2.1955,2.2057,2.2144,2.222,2.2336,2.2391,2.2506,2.2563,2.2646,2.2736,2.2766,2.285,2.2921,2.3016,2.3063,2.319,2.3216,2.325,2.3261,2.3248,2.3245,2.3289,2.3283,2.3281,2.328,2.3279,2.3278,0,2.2043,2.2105,2.2241,2.235,2.2379,2.2461,2.2555,2.2632,2.2685,2.2798,2.2828,2.2914,2.3027,2.3093,2.3237,2.3269,2.341,2.3417,2.3377,2.3383,2.345,2.3444,2.3652,2.3683,2.353,2.3532,2.3533,0,2.2122,2.2201,2.2318,2.2379,2.2435,2.2533,2.26,2.2659,2.2728,2.2844,2.2908,2.3022,2.3117,2.3297,2.3374,2.3485,2.3497,2.3562,2.3514,2.3499,2.3502,2.3498,2.3508,2.3571,2.3572,2.3573,2.3574,0,2.2255,2.2282,2.2376,2.2482,2.2561,2.2648,2.2734,2.2783,2.2857,2.2933,2.3048,2.3122,2.3268,2.3384,2.3501,2.3562,2.3583,2.3588,2.3611,2.36,2.3575,2.3593,2.3403,2.3584,2.3583,2.3582,2.3581,2.3581,2.2344,2.2416,2.251,2.2615,2.2686,2.2766,2.2844,2.2907,2.3003,2.3126,2.3155,2.3277,2.3375,2.3534,2.3598,2.3697,2.3687,2.3719,2.3727,2.3735,2.3739,2.3556,2.3719,2.3718,2.3718,2.3718,2.3718,0,2.2482,2.2543,2.2639,2.2758,2.2842,2.285,2.2947,2.3017,2.3123,2.3211,2.3304,2.3439,2.3551,2.3637,2.3753,2.3816,2.3828,2.3844,2.3842,2.3857,2.374,2.371,2.3833,2.3833,2.3833,2.3833,2.3833,2.3833,2.2563,2.2688,2.2726,2.2887,2.2949,2.3068,2.3123,2.3199,2.3269,2.3417,2.351,2.3564,2.3653,2.3776,2.3881,2.3904,2.3946,2.3962,2.3987,2.3877,2.3864,2.3853,2.3825,2.397,2.397,2.4096,2.4097,2.4098]},{"header":{"parameterUnit":"m.s-1","parameterCategory":1,"la1":30.2991,"la2":30.254,"lo1":-89.0895,"lo2":-89.0444,"dy":0.0017,"dx":0.0017,"nx":28,"ny":28,"refTime":"2025-08-23T09:00:00:Z","depth":0,"parameterNumber":3,"parameterNumberName":"V-component_of_WINDS"},"data":[0,0,0,0,0,0,0,0,0,0,0,0,0,0,0,0,0,0,0,0,0,0,0,0,0,0,0,0,0,0,0,0,0,0,0,0,0,0,0,0,0,0,0,0,0,0,0,0,0,0,0,0,0,0,0,0,0,0,-0.1567,-0.1565,0,-0.1439,-0.1438,-0.1436,-0.1472,-0.1475,-0.1478,-0.148,-0.1338,-0.1332,-0.1326,0,0,0,0,0,0,0,0,0,0,0,0,0,-0.1829,-0.1824,-0.1567,-0.1565,-0.1564,-0.144,-0.1438,-0.1436,-0.1472,-0.1475,-0.1478,-0.1481,-0.134,-0.1332,-0.1325,0,0,0,0,0,0,0,0,0,0,0,0,0,-0.1709,-0.1822,-0.1567,-0.1567,-0.1565,-0.144,-0.1438,-0.1436,-0.1471,-0.1475,-0.1479,-0.1483,-0.1342,-0.1333,-0.1324,-0.1187,0,0,-0.1295,-0.1291,0,0,0,0,0,0,0,0,-0.1716,-0.1699,-0.1568,-0.1566,-0.1565,-0.1476,-0.1478,-0.1352,-0.147,-0.1506,-0.148,-0.1485,-0.138,-0.1368,-0.1335,-0.1181,-0.1175,-0.1295,-0.1289,-0.1285,-0.1282,0,0,0,0,0,0,0,-0.1724,-0.1705,-0.1516,-0.1566,-0.1564,-0.1569,-0.1556,-0.1454,-0.1422,-0.1504,-0.1506,-0.1491,-0.1379,-0.1344,-0.1332,-0.1173,-0.1295,-0.1287,-0.1281,-0.1277,-0.0896,-0.0892,0,0,0,0,0,0,-0.1735,-0.1712,-0.152,-0.1512,-0.1652,-0.1561,-0.1547,-0.15,-0.1424,-0.1416,-0.1488,-0.1493,-0.1358,-0.1342,-0.1327,-0.1158,-0.1285,-0.1276,-0.1271,-0.09,-0.0895,-0.089,0,0,0,0,0,0,-0.1741,-0.1718,-0.1525,-0.1613,-0.1589,-0.1553,-0.15,-0.1496,-0.146,-0.1412,-0.1405,-0.1458,-0.136,-0.134,-0.1222,-0.1154,-0.1272,-0.1263,-0.0906,-0.0899,-0.0892,-0.0823,0,0,0,0,0,0,-0.1748,-0.172,-0.167,-0.1611,-0.1584,-0.1426,-0.1496,-0.149,-0.1445,-0.1451,-0.1382,-0.1374,-0.1362,-0.1235,-0.1212,-0.1143,-0.1256,-0.0911,-0.0903,-0.0895,-0.0831,-0.0814,-0.0801,0,0,0,0,0,-0.1757,-0.1654,-0.1668,-0.1644,-0.1522,-0.1422,-0.1405,-0.1397,-0.144,-0.1387,-0.1356,-0.1376,-0.1167,-0.1223,-0.1197,-0.1124,-0.0916,-0.0905,-0.0895,-0.0838,-0.0818,-0.0801,0,0,0,0,0,0,-0.1702,-0.1646,-0.1661,-0.1536,-0.1484,-0.1428,-0.1362,-0.1377,-0.1308,-0.1316,-0.1305,-0.1289,-0.1167,-0.1135,-0.1199,-0.0986,-0.1047,-0.1031,-0.1012,-0.0992,-0.0977,-0.0985,-0.1248,0,0,0,0,0,-0.1676,-0.1603,-0.1557,-0.1451,-0.1425,-0.1398,-0.1354,-0.1352,-0.1296,-0.1273,-0.1233,-0.1174,-0.1095,-0.1042,-0.0967,-0.0828,-0.081,-0.0765,-0.075,-0.0737,-0.0722,-0.0642,-0.062,-0.0857,-0.0857,-0.0857,0,0,-0.1619,-0.158,-0.1534,-0.1439,-0.1398,-0.1319,-0.1379,-0.1293,-0.1232,-0.1258,-0.1144,-0.1113,-0.1047,-0.0917,-0.0857,-0.0885,-0.0654,-0.0725,-0.0715,-0.0706,-0.0629,-0.0607,-0.0587,-0.085,-0.0851,-0.0852,0,0,-0.1475,-0.1441,-0.1347,-0.1306,-0.1245,-0.1228,-0.1206,-0.1148,-0.1129,-0.1016,-0.1033,-0.0959,-0.0824,-0.0775,-0.0732,-0.0569,-0.0583,-0.0545,-0.0464,-0.0385,-0.0367,-0.035,-0.0287,-0.0265,-0.0531,-0.0531,-0.0531,0,-0.1412,-0.1297,-0.1296,-0.1208,-0.1164,-0.1189,-0.1091,-0.105,-0.0965,-0.0932,-0.0967,-0.0796,-0.0753,-0.061,-0.0571,-0.0537,-0.0506,-0.0551,-0.0371,-0.0354,-0.0338,-0.0278,-0.0255,-0.0526,-0.0527,-0.0527,-0.0528,0,-0.1219,-0.1139,-0.107,-0.0992,-0.094,-0.0847,-0.0829,-0.0776,-0.0779,-0.0757,-0.0638,-0.0589,-0.0502,-0.0469,-0.047,-0.0324,-0.0343,-0.0374,-0.0433,-0.0311,-0.0254,-0.0231,-0.052,-0.0522,-0.0523,-0.0524,0,0,-0.1033,-0.0958,-0.0931,-0.0895,-0.083,-0.0765,-0.0673,-0.0592,-0.0544,-0.0486,-0.0404,-0.0289,-0.0317,-0.0269,-0.0264,-0.0197,-0.0065,-0.0235,-0.0233,-0.0201,0.0104,0.013,0.0156,-0.0077,-0.0072,-0.0069,0.01,0,-0.0881,-0.0721,-0.0718,-0.057,-0.0493,-0.0515,-0.0434,-0.0382,-0.0359,-0.0288,-0.0261,-0.0178,-0.0224,-0.0194,-0.0129,-0.0095,-0.0003,-0.0108,0.0006,0.001,-0.0006,0.0185,0.0213,0.037,0.0121,0.0125,0.0128,0,-0.068,-0.0618,-0.0463,-0.0408,-0.0375,-0.0302,-0.0226,-0.016,-0.01,-0.0088,-0.0034,-0.004,0.006,-0.0007,0.0134,0.0062,0.0109,0.0132,0.0138,0.0154,0.008,0.0211,0.042,0.0446,0.0162,0.0159,0.0157,0,-0.0554,-0.0432,-0.0323,-0.0292,-0.0225,-0.0172,-0.0141,-0.0087,-0.0038,0.0029,0.0063,0.0141,0.0186,0.025,0.0268,0.0216,0.041,0.0343,0.0428,0.0428,0.0474,0.0472,0.0698,0.0495,0.0494,0.0494,0.0493,0,-0.0381,-0.0283,-0.0265,-0.0197,-0.0088,-0.0084,0.0026,0.0053,0.0102,0.0179,0.0163,0.0236,0.0253,0.033,0.0345,0.0462,0.0481,0.0498,0.0502,0.0502,0.0501,0.0537,0.0528,0.05,0.0499,0.0497,0.0496,0,-0.0219,-0.0204,-0.0085,-0.0033,-0.0018,0.0061,0.0108,0.0176,0.0195,0.0292,0.0316,0.0349,0.044,0.0462,0.057,0.058,0.072,0.0711,0.07,0.0701,0.0786,0.078,0.1048,0.1086,0.0852,0.0854,0.0856,0,-0.0107,-0.0033,0.0026,0.0074,0.0107,0.0184,0.0234,0.0241,0.0294,0.0367,0.0427,0.0514,0.0586,0.0732,0.0769,0.0853,0.0849,0.0937,0.0862,0.0862,0.0857,0.0855,0.0865,0.0954,0.0956,0.0958,0.096,0,0.0092,0.0096,0.0166,0.0239,0.0297,0.0356,0.0413,0.0454,0.047,0.0531,0.0621,0.0675,0.0785,0.0875,0.0959,0.0995,0.0984,0.0982,0.1007,0.1011,0.1004,0.1014,0.0744,0.0977,0.0976,0.0974,0.0973,0.0973,0.0236,0.0302,0.0354,0.0434,0.0476,0.0529,0.0595,0.0622,0.0696,0.0784,0.0784,0.0884,0.0944,0.1055,0.1096,0.1178,0.1152,0.1187,0.1197,0.1207,0.1217,0.0986,0.1193,0.1192,0.1192,0.1191,0.1191,0,0.044,0.0471,0.0543,0.0621,0.0685,0.066,0.0722,0.0778,0.0865,0.092,0.0989,0.1095,0.1181,0.1224,0.1311,0.1368,0.1365,0.1392,0.1391,0.1401,0.1232,0.1204,0.1393,0.1393,0.1393,0.1393,0.1393,0.1393,0.0553,0.0664,0.0674,0.0808,0.084,0.0935,0.0973,0.1023,0.1067,0.1185,0.1255,0.128,0.1332,0.1423,0.1503,0.1513,0.1549,0.158,0.1588,0.1432,0.1412,0.1392,0.1366,0.1586,0.1586,0.175,0.1752,0.1753]}]]